Hourly Weather Roundup
Issued by NWS Central Illinois

Home | Current Version | Previous Version | Text Only | Print | Product List | Glossary On
Versions: 1 2 3 4 5 6 7 8 9 10 11 12 13 14 15 16 17 18 19 20 21 22 23 24 25 26 27 28 29 30 31 32 33 34 35 36 37 38 39 40 41 42 43 44 45 46 47 48 49 50
000
NZUS43 KILX 210210
HWRILX

Area Weather Roundup
National Weather Service Lincoln IL
800 PM CST MON NOV 20 2017

NOTE:  "FAIR" indicates few or no clouds below 12,000 feet, with
       no sigificant weather and/or obstructions to visibility.


CITY           SKY/WX    TMP DP  RH WIND       PRES   REMARKS
Bloomington    CLOUDY    43  31  62 S24G30    29.81R WCI  33
Champaign      CLEAR     41  30  65 S21       29.86S WCI  32
Danville       CLEAR     42  29  60 S21G26    29.84S WCI  33
Decatur        CLEAR     43  30  60 S21G28    29.85S WCI  34
Effingham      CLEAR     45  28  52 SE9       29.93F
Flora          CLEAR     44  29  55 S15G21    29.94F
Galesburg      CLOUDY    48  33  55 S9        29.76R
Jacksonville   CLOUDY    47  29  49 S14       29.81S
Lacon          CLOUDY    47  31  54 S14G23    29.75S
Lawrenceville  CLEAR     40  29  64 MISG      29.98F
Litchfield     CLEAR     40  32  72 S16       29.88R WCI  32
$$


CITY           SKY/WX    TMP DP  RH WIND       PRES   REMARKS
Lincoln        CLOUDY    45  33  64 S15       29.83S
Macomb         CLOUDY    50  31  49 S10       29.78R
Mattoon        CLEAR     43  28  55 S15G25    29.88F
Mt Carmel AP   CLEAR     42  26  54 S12       29.98F
Olney-Noble AP CLEAR     42  25  50 S15       29.96F WCI  35
Paris AP       CLEAR     41  31  66 S20       29.91F WCI  32
Peoria         CLOUDY    46  32  58 S15G24    29.79S
Pontiac        CLOUDY    43  33  67 S20G28    29.80S WCI  35
Rantoul        CLEAR     42  32  67 S16       29.86S WCI  35
Robinson       CLEAR     40  28  60 S10       29.96F WCI  34
Springfield    CLOUDY    46  32  58 S20       29.84R
Taylorville    CLEAR     42  31  65 S16G24    29.86S WCI  34
$$

...REGIONAL REPORTS...


CITY           SKY/WX    TMP DP  RH WIND       PRES   REMARKS
Chicago O`Hare CLOUDY    48  30  49 SW23G32   29.74R
Kankakee       CLEAR     42  32  67 S16G23    29.83R WCI  34
Moline         CLOUDY    51  31  46 S13       29.70S
Mount Sterling PTCLDY    50  28  42 S12       29.78S
Mount Vernon   CLEAR     43  29  57 S14G21    29.96F
Pittsfield     PTCLDY    51  29  42 S12       29.81F
Quincy         CLOUDY    50  29  44 S15       29.78S
Rockford       CLOUDY    42  33  70 S13       29.71F
$$


CITY           SKY/WX    TMP DP  RH WIND       PRES   REMARKS
Burlington     MOCLDY    49  32  52 S12       29.73S
Cedar Rapids   CLOUDY    50  31  48 S15       29.64F
Des Moines     CLOUDY    53  29  39 SW15      29.64F
Kirksville     CLOUDY    54  31  41 SW14G25   29.75S
Ottumwa        MOCLDY    52  30  43 SW16      29.68S
St Louis       CLOUDY    50  28  42 S12       29.88R
$$


CITY           SKY/WX    TMP DP  RH WIND       PRES   REMARKS
Terre Haute    CLEAR     44  25  47 S15       29.94F
Evansville     CLEAR     43  25  49 S9        30.03F
Indianapolis   PTCLDY    41  24  51 S14       29.95F WCI  33
Lafayette      CLEAR     42  27  55 S9        29.87F
Madison        MOCLDY    49  32  52 S16G23    29.58F
Milwaukee      CLOUDY    50  34  54 SW24G32   29.64F
$$






USA.gov is the U.S. government's official web portal to all federal, state and local government web resources and services.